Regional Weather Roundup
Issued by NWS

Home | Current Version | Previous Version | Graphics & Text | Print | Product List | Glossary On
Versions: 1 2 3 4 5 6 7 8 9 10 11 12 13 14 15 16 17 18 19 20 21 22 23 24 25 26 27 28 29 30 31 32 33 34 35 36 37 38 39 40 41 42 43 44 45 46 47 48 49 50
000
ASUS43 KDTX 210701
RWRMI
MICHIGAN HOURLY REGIONAL WEATHER ROUNDUP
NATIONAL WEATHER SERVICE DETROIT/PONTIAC MI
300 AM EDT THU SEP 21 2017

NOTE: "FAIR" INDICATES FEW OR NO CLOUDS BELOW 12,000 FEET WITH NO
SIGNIFICANT WEATHER AND/OR OBSTRUCTION TO VISIBILITY.

MIZ047>049-052>055-059>063-066>070-074>076-081>083-210800-
SOUTHEAST LOWER MICHIGAN

CITY           SKY/WX    TMP DP  RH WIND       PRES   REMARKS
ADRIAN         MOCLDY    65  64  97 CALM      30.06S FOG
ALMA           CLOUDY    69  64  84 S10       30.01F
ANN ARBOR      CLOUDY    64  64 100 NE3       30.05F FOG
BAD AXE        CLOUDY    67  64  90 S6        30.05F
CARO           CLOUDY    64  63  94 CALM      30.03F
DETROIT CITY   CLEAR     66  65  96 CALM      30.07R
DETROIT        PTCLDY    68  67  96 CALM      30.06S FOG
FLINT          CLOUDY    65  63  93 S6        30.04F
GROSSE ILE     CLEAR     67  66  97 CALM      30.05S FOG
HILLSDALE      CLOUDY    68  64  88 SE5       30.05S
HOWELL         CLOUDY    66  65  94 SE3       30.05F

CITY           SKY/WX    TMP DP  RH WIND       PRES   REMARKS
JACKSON        CLOUDY    70  66  87 E3        30.04F
LAMBERTVILLE   CLEAR     66  63  92 CALM      30.05S FOG
LANSING        CLOUDY    71  65  81 SE9       30.02F
LAPEER         MOCLDY    64  63  96 CALM      30.06F FOG
MASON          PTCLDY    69  66  88 SE8       30.04F
MONROE         FOG       65  63  93 E3        30.05S VSB 3/4
MT. CLEMENS    FOG       63  63 100 CALM      30.05F VSB 1/4
PONTIAC        CLOUDY    64  64 100 CALM      30.06S FOG
PORT HURON     FOG       61  61 100 CALM      30.07F VSB 3/4
TRI CITIES     CLOUDY    71  68  90 S8        30.02F
MIDLAND        FAIR      71  64  80 S5        30.00F
TROY           CLOUDY    67  65  93 CALM      30.08F
SAGINAW HB     CLOUDY    68  64  88 S6        30.01F
$$
MIZ043>046-050>051-056>058-064>065-071>073-077>080-210800-
SOUTHWEST LOWER MICHIGAN

CITY           SKY/WX    TMP DP  RH WIND       PRES   REMARKS
BATTLE CREEK   CLOUDY    72  68  87 SE5       30.02F
BENTON HARBOR  CLOUDY    75  67  76 S3        29.98R
BIG RAPIDS     CLOUDY    67  64  89 SE6       29.99F
COLDWATER      CLOUDY    70  69  98 CALM      30.03F
FREMONT        FAIR      71  69  94 SW3       29.99S
HOLLAND        CLOUDY    72  68  87 CALM      29.99R
GRAND RAPIDS   CLOUDY    72  69  90 S7        29.99S
IONIA          FAIR      70  67  90 SE6       30.00F
KALAMAZOO      CLOUDY    73  66  78 S5        30.01S
LUDINGTON      CLOUDY    70  64  79 CALM      29.94F
MARSHALL       CLOUDY    69  68  98 SE5       30.02F
MOUNT PLEASANT CLOUDY    71  64  78 SE3       29.99F
MUSKEGON       MOCLDY    73  68  84 S3        29.99S
SOUTH HAVEN    CLOUDY    74  69  85 CALM      29.98S
$$
MIZ016>042-210800-
NORTHERN LOWER MICHIGAN

CITY           SKY/WX    TMP DP  RH WIND       PRES   REMARKS
ALPENA         CLOUDY    64  64 100 SE5       29.99F FOG
BEAVER ISLAND  CLOUDY    68  67  94 SE5       29.93F
BELLAIRE       MOCLDY    70  65  86 CALM      29.95S
CADILLAC       CLOUDY    73  65  77 S7        29.99R
CHARLEVOIX     CLOUDY    69  65  87 CALM      29.98F
FRANKFORT      LGT RAIN  71  69  93 SW7       29.94S
GAYLORD        CLOUDY    68  63  84 S10       29.97F
GRAYLING       MOCLDY    69  63  80 SE6       29.99F
HARBOR SPRINGS CLOUDY    70  65  84 CALM      29.96F
HOUGHTON LAKE  CLOUDY    70  64  81 S9        30.00F
MANISTEE       LGT RAIN  72  65  78 S5        29.93F
OSCODA         CLOUDY    68  67  98 S3        30.00F
PELLSTON       CLOUDY    69  67  93 SE3       29.97F
ROGERS CITY    CLOUDY    70  65  83 S12G17    29.97F
TRAVERSE CITY  CLOUDY    78  66  66 VRB6      29.91S
$$
MIZ007>008-015-210800-
EASTERN UPPER MICHIGAN

CITY           SKY/WX    TMP DP  RH WIND       PRES   REMARKS
KINROSS        TSTM      67  66  97 SE8       29.97F
MACKINAC ISLAN CLOUDY    68  66  94 SE9       29.93F
NEWBERRY       CLOUDY    65  64  97 CALM      29.94F FOG
S. S. MARIE    RAIN      67  66  97 E7        29.97F FOG
MUNISING         N/A     63  63 100 CALM      29.96R
$$
MIZ004>006-011>014-085-210800-
CENTRAL UPPER MICHIGAN

CITY           SKY/WX    TMP DP  RH WIND       PRES   REMARKS
MANISTIQUE     MOCLDY    65  59  81 N3        29.94S HAZE
ESCANABA       CLOUDY    66  66 100 CALM      29.95R FOG
MENOMINEE      CLOUDY    67  67 100 CALM      29.94F FOG
SAWYER-GWINN   CLOUDY    64  62  93 N6        29.98S
$$
MIZ001>003-009>011-084-210800-
WESTERN UPPER MICHIGAN

CITY           SKY/WX    TMP DP  RH WIND       PRES   REMARKS
IRON MOUNTAIN  CLOUDY    65  62  90 NW6       29.96R
HOUGHTON       CLEAR     53  51  93 N6        29.98S
COPPER HARBOR    N/A     59  57  93 N3        29.98R
IRONWOOD       FOG       48  48 100 CALM      30.02S VSB 1/2
$$

ABBREVIATIONS USED IN REMARKS
   TC - TEMPERATURE IN CELSIUS
  WCI - WIND CHILL INDEX
   HX - HEAT INDEX
  VSB - VISIBILITY




USA.gov is the U.S. government's official web portal to all federal, state and local government web resources and services.